Back to catalog

SL-24 R/B

AlivePO
NORAD 39228·ROCKET BODY·🇷🇺 Russia

Launched Aug 22, 2013 from Dombarovsky

Loading…

Next Passes (next 24 hours)

TLE

FreshSource: Space-Track

Epoch: Sep 14, 2026, 00:36 UTC

1 39228U 13042B   26257.02507157  .00000177  00000-0  52129-4 0  9991
2 39228  97.4987  90.2233 0446534 292.6695  62.7851 14.08833044666815

Track SL-24 R/B in real time with AllMySat

Download on the App Store